User: anonymous   Login
Location: Unspecified
(0.0000°N, 0.0000°E)
Time: 08:53:48
(UTC+02:00)
Language:

Iridium 15 - Orbit

View from above orbital plane
View from above orbital plane
View from above satellite
View from above satellite

Ground track
Ground track

The orbit data is extracted from the following two-line orbital elements,

1 24869U 97034A   16205.39269605  .00000126  00000-0  38007-4 0  9997
2 24869  86.3990 159.5582 0002210  79.1823 280.9621 14.34217325996785
Epoch (UTC): 23 July 2016 09:25:28
Eccentricity: 0.0002210
inclination: 86.3990°
perigee height: 776 km
apogee height: 779 km
right ascension of ascending node: 159.5582°
argument of perigee: 79.1823°
revolutions per day: 14.34217325
mean anomaly at epoch: 280.9621°
orbit number at epoch: 99678

The dashed part of the orbit path shows where the satellite is in the earth's shadow,  

DLR